Date String (YYYY-MM-DD hh:mm:ss) UTC,Instrument flags,Ambient pressure (hPa),Sample flow (lpm),Bypass flow (lpm),Sample temperature (°C),Ambient temperature (°C),ASC tube jacket temperature (°C),LED temperature (°C),Box temperature (°C),Sample RH (%),Span deviation,Mass concentration (μg/m³),Mass concentration (μg/m³),Mass concentration (μg/m³)
DateTimeUTC,F1_M11,P_M11,Q1_M11,Q2_M11,T1_M11,T2_M11,T3_M11,T4_M11,T5_M11,U1_M11,ZSPAN_M11,X0_M11,X2_M11,X1_M11
2022-04-12 05:00:00,,0804.0,5.00,0.00,28.1,27.1,00.0,37.3,29.8,10.0,0000.0,0021.17,0005.81,0002.50
2022-04-12 05:01:00,,0804.0,5.02,0.00,28.1,27.0,00.0,37.2,29.8,10.1,0000.0,0020.86,0005.77,0002.47
2022-04-12 05:02:00,,0803.9,4.99,0.00,28.0,26.9,00.0,37.2,29.7,10.3,0000.0,0020.26,0005.72,0002.42
2022-04-12 05:03:00,,0803.9,5.00,0.00,28.0,26.8,00.0,37.2,29.6,10.4,0000.0,0019.79,0005.68,0002.39
2022-04-12 05:04:00,,0803.9,5.01,0.00,27.9,26.8,00.0,37.1,29.6,10.5,0000.0,0018.67,0005.55,0002.35
2022-04-12 05:05:00,,0803.9,4.99,0.00,27.9,26.7,00.0,37.1,29.5,10.7,0000.0,0017.59,0005.45,0002.33
2022-04-12 05:06:00,,0803.9,5.01,0.00,27.8,26.7,00.0,37.1,29.5,10.9,0000.0,0017.06,0005.26,0002.30
2022-04-12 05:07:00,,0804.0,4.99,0.00,27.8,26.6,00.0,37.0,29.5,11.1,0000.0,0017.31,0005.15,0002.28
2022-04-12 05:08:00,,0804.0,5.01,0.00,27.8,26.6,00.0,37.0,29.4,11.2,0000.0,0016.45,0005.08,0002.24
2022-04-12 05:09:00,,0804.0,4.99,0.00,27.7,26.5,00.0,37.0,29.4,11.3,0000.0,0016.03,0005.00,0002.21
2022-04-12 05:10:00,,0804.0,5.01,0.00,27.7,26.5,00.0,36.9,29.4,11.3,0000.0,0015.62,0004.92,0002.19
2022-04-12 05:11:00,,0803.9,5.01,0.00,27.6,26.4,00.0,36.9,29.3,11.3,0000.0,0015.22,0004.88,0002.17
2022-04-12 05:12:00,,0803.9,4.99,0.00,27.6,26.4,00.0,36.9,29.3,11.3,0000.0,0015.02,0004.82,0002.15
2022-04-12 05:13:00,,0803.9,5.01,0.00,27.6,26.4,00.0,36.8,29.2,11.3,0000.0,0014.82,0004.81,0002.16
2022-04-12 05:14:00,,0803.9,5.00,0.00,27.5,26.4,00.0,36.8,29.2,11.1,0000.0,0015.30,0004.80,0002.14
2022-04-12 05:15:00,,0803.9,5.00,0.00,27.5,26.4,00.0,36.8,29.2,10.5,0000.0,0015.62,0004.83,0002.14
2022-04-12 05:16:00,,0803.9,5.01,0.00,27.5,26.5,00.0,36.8,29.2,10.4,0000.0,0016.41,0004.86,0002.15
2022-04-12 05:17:00,,0803.9,4.99,0.00,27.5,26.5,00.0,36.7,29.2,10.3,0000.0,0016.64,0004.93,0002.18
2022-04-12 05:18:00,,0804.0,5.00,0.00,27.5,26.6,00.0,36.7,29.3,10.4,0000.0,0016.02,0005.02,0002.22
2022-04-12 05:19:00,,0804.0,5.01,0.00,27.5,26.6,00.0,36.7,29.3,10.5,0000.0,0015.94,0005.07,0002.23
2022-04-12 05:20:00,,0804.0,4.99,0.00,27.5,26.6,00.0,36.7,29.3,10.6,0000.0,0016.30,0005.17,0002.25
2022-04-12 05:21:00,,0803.9,4.99,0.00,27.5,26.6,00.0,36.7,29.3,11.1,0000.0,0017.07,0005.23,0002.26
2022-04-12 05:22:00,,0803.9,5.02,0.00,27.5,26.5,00.0,36.7,29.3,11.7,0000.0,0017.78,0005.22,0002.25
2022-04-12 05:23:00,,0803.9,4.99,0.00,27.5,26.5,00.0,36.7,29.2,12.0,0000.0,0017.80,0005.20,0002.24
2022-04-12 05:24:00,,0803.8,5.01,0.00,27.5,26.4,00.0,36.6,29.2,12.3,0000.0,0017.57,0005.17,0002.22
2022-04-12 05:25:00,,0803.7,4.99,0.00,27.4,26.4,00.0,36.6,29.1,12.5,0000.0,0017.01,0005.15,0002.23
2022-04-12 05:26:00,,0803.7,5.00,0.00,27.4,26.3,00.0,36.6,29.1,12.7,0000.0,0016.56,0005.05,0002.21
2022-04-12 05:27:00,,0803.8,5.00,0.00,27.3,26.3,00.0,36.6,29.0,12.6,0000.0,0015.99,0004.98,0002.17
2022-04-12 05:28:00,,0803.7,5.00,0.00,27.3,26.2,00.0,36.5,29.0,12.7,0000.0,0015.84,0004.88,0002.12
2022-04-12 05:29:00,,0803.7,4.99,0.00,27.3,26.2,00.0,36.5,29.0,12.8,0000.0,0015.23,0004.76,0002.11
2022-04-12 05:30:00,,0803.7,5.01,0.00,27.3,26.1,00.0,36.5,29.0,13.0,0000.0,0014.71,0004.62,0002.06
2022-04-12 05:31:00,,0803.7,4.99,0.00,27.2,26.1,00.0,36.5,28.9,13.1,0000.0,0014.30,0004.46,0002.02
2022-04-12 05:32:00,,0803.7,5.00,0.00,27.2,26.0,00.0,36.4,28.9,13.1,0000.0,0013.20,0004.34,0001.95
2022-04-12 05:33:00,,0803.7,5.00,0.00,27.1,25.9,00.0,36.4,28.8,13.2,0000.0,0012.29,0004.31,0001.92
2022-04-12 05:34:00,,0803.6,4.99,0.00,27.1,25.9,00.0,36.4,28.8,13.2,0000.0,0012.10,0004.28,0001.93
2022-04-12 05:35:00,,0803.6,5.01,0.00,27.1,25.9,00.0,36.3,28.8,13.3,0000.0,0012.19,0004.26,0001.92
2022-04-12 05:36:00,,0803.5,4.98,0.00,27.1,25.9,00.0,36.3,28.7,13.4,0000.0,0012.74,0004.21,0001.91
2022-04-12 05:37:00,,0803.5,5.00,0.00,27.0,25.9,00.0,36.3,28.7,13.4,0000.0,0012.38,0004.21,0001.92
2022-04-12 05:38:00,,0803.4,5.00,0.00,27.0,25.8,00.0,36.2,28.7,13.4,0000.0,0012.04,0004.17,0001.90
2022-04-12 05:39:00,,0803.5,4.99,0.00,27.0,25.8,00.0,36.2,28.7,13.5,0000.0,0011.95,0004.20,0001.88
2022-04-12 05:40:00,,0803.5,5.02,0.00,27.0,25.8,00.0,36.2,28.7,13.5,0000.0,0011.96,0004.19,0001.85
2022-04-12 05:41:00,,0803.4,4.99,0.00,26.9,25.9,00.0,36.2,28.6,13.6,0000.0,0011.90,0004.17,0001.83
2022-04-12 05:42:00,,0803.4,5.03,0.00,26.9,25.9,00.0,36.2,28.6,13.7,0000.0,0011.83,0004.17,0001.82
2022-04-12 05:43:00,,0803.4,4.99,0.00,26.9,25.9,00.0,36.1,28.6,13.8,0000.0,0012.47,0004.21,0001.83
2022-04-12 05:44:00,,0803.3,5.01,0.00,26.9,25.9,00.0,36.1,28.6,13.8,0000.0,0012.81,0004.19,0001.84
2022-04-12 05:45:00,,0803.3,4.99,0.00,26.9,25.9,00.0,36.1,28.6,13.8,0000.0,0013.71,0004.21,0001.81
2022-04-12 05:46:00,,0803.3,5.01,0.00,26.9,25.9,00.0,36.1,28.6,13.8,0000.0,0013.99,0004.21,0001.80
2022-04-12 05:47:00,,0803.3,4.98,0.00,26.8,25.9,00.0,36.0,28.6,13.8,0000.0,0013.09,0004.22,0001.79
2022-04-12 05:48:00,,0803.2,5.02,0.00,26.8,25.9,00.0,36.0,28.5,14.0,0000.0,0013.24,0004.23,0001.79
2022-04-12 05:49:00,,0803.2,4.98,0.00,26.8,25.9,00.0,36.0,28.6,14.0,0000.0,0013.65,0004.23,0001.80
2022-04-12 05:50:00,,0803.2,5.01,0.00,26.8,25.9,00.0,36.0,28.5,14.1,0000.0,0012.97,0004.15,0001.81
2022-04-12 05:51:00,,0803.3,5.00,0.00,26.8,25.8,00.0,36.0,28.5,14.1,0000.0,0012.95,0004.17,0001.81
2022-04-12 05:52:00,,0803.2,4.99,0.00,26.8,25.8,00.0,36.0,28.5,14.2,0000.0,0013.42,0004.14,0001.80
2022-04-12 05:53:00,,0803.2,5.02,0.00,26.7,25.8,00.0,35.9,28.5,14.3,0000.0,0013.69,0004.15,0001.80
2022-04-12 05:54:00,,0803.2,4.99,0.00,26.7,25.8,00.0,35.9,28.5,14.3,0000.0,0013.12,0004.10,0001.80
2022-04-12 05:55:00,,0803.2,5.01,0.00,26.7,25.7,00.0,35.9,28.4,14.4,0000.0,0013.27,0004.10,0001.77
2022-04-12 05:56:00,,0803.2,5.01,0.00,26.7,25.7,00.0,35.9,28.4,14.5,0000.0,0012.39,0004.05,0001.76
2022-04-12 05:57:00,,0803.2,4.99,0.00,26.7,25.7,00.0,35.9,28.4,14.6,0000.0,0012.01,0004.03,0001.76
2022-04-12 05:58:00,,0803.1,5.01,0.00,26.6,25.7,00.0,35.8,28.4,14.6,0000.0,0012.17,0003.98,0001.75
2022-04-12 05:59:00,,0803.1,4.99,0.00,26.6,25.6,00.0,35.8,28.4,14.7,0000.0,0012.35,0003.95,0001.73
